Location: Les Chemineaux
(47.3024°N, 1.5104°E)
Time: 07:26:48
(UTC+00:00)

Cosmos 1315 Rocket - Pass Details

Date: 19 May 2025
Orbit: 498 x 525 km, 81.2° (Epoch: 18 June)

Event Time Altitude Azimuth Distance (km) Brightness Sun altitude
Exits shadow 22:29:49 17° 237° (WSW) 1,375 4.7 -20.3°
Maximum altitude 22:32:05 30° 289° (WNW) 967 4.4 -20.4°
Drops below altitude 10° 22:35:34 10° 351° (N) 1,775 6.6 -20.6°
Sets 22:37:55 0° 3° (N) 2,665 7.5 -20.8°
